This is the latest recevied weather packets stored in our database for station/object G1OCN-WX. If no packets are shown the sender has not sent any weather packets the latest 10 day(s).
| Time | Temp. | Humidity | Pressure | Rain* | Wind** | Luminosity | Snow |
|---|---|---|---|---|---|---|---|
| 1787613552 | 17.22° C | 69% | 1012.4 hPa | 0 mm | - | - | - |
| 1787612652 | 17.22° C | 68% | 1012.6 hPa | 0 mm | - | - | - |
| 1787611752 | 17.22° C | 67% | 1012.5 hPa | 0 mm | - | - | - |
| 1787610852 | 17.22° C | 66% | 1012.6 hPa | 0 mm | - | - | - |
| 1787609952 | 17.22° C | 64% | 1012.5 hPa | 0 mm | - | - | - |
| 1787609052 | 17.22° C | 63% | 1012.4 hPa | 0 mm | - | - | - |
| 1787608152 | 17.78° C | 60% | 1012.5 hPa | 0 mm | - | - | - |
| 1787607252 | 17.78° C | 60% | 1012.6 hPa | 0 mm | - | - | - |
| 1787606352 | 17.78° C | 59% | 1012.6 hPa | 0 mm | - | - | - |
| 1787605452 | 18.33° C | 59% | 1012.5 hPa | 0 mm | - | - | - |
| 1787604552 | 18.33° C | 59% | 1012.6 hPa | 0 mm | - | - | - |
| 1787603652 | 18.89° C | 58% | 1012.6 hPa | 0 mm | - | - | - |
| 1787602752 | 18.89° C | 57% | 1012.7 hPa | 0 mm | - | - | - |
| 1787601852 | 19.44° C | 57% | 1012.8 hPa | 0 mm | - | - | - |
| 1787600951 | 19.44° C | 59% | 1012.8 hPa | 0 mm | - | - | - |
| 1787600051 | 19.44° C | 66% | 1012.6 hPa | 0 mm | - | - | - |
| 1787599151 | 19.44° C | 64% | 1012.6 hPa | 0 mm | - | - | - |
| 1787598251 | 19.44° C | 63% | 1012.6 hPa | 0 mm | - | - | - |
| 1787597351 | 19.44° C | 64% | 1012.8 hPa | 0 mm | - | - | - |
| 1787596451 | 19.44° C | 61% | 1013.1 hPa | 0 mm | - | - | - |
| 1787595551 | 20° C | 62% | 1013 hPa | 0 mm | - | - | - |
| 1787594651 | 20° C | 61% | 1012.8 hPa | 0 mm | - | - | - |
| 1787593751 | 19.44° C | 63% | 1013.1 hPa | 0 mm | - | - | - |
| 1787592851 | 19.44° C | 62% | 1013.2 hPa | 0 mm | - | - | - |
| 1787591951 | 19.44° C | 62% | 1013.6 hPa | 0 mm | - | - | - |
* Rain latest hour (hover to see other rain measurements)
** Current wind speed in m/s (hover to see current wind gust speed)